Regional Weather Roundup
Issued by NWS

Home | Current Version | Previous Version | Text Only | Print | Product List | Glossary On
Versions: 1 2 3 4 5 6 7 8 9 10 11 12 13 14 15 16 17 18 19 20 21 22 23 24 25 26 27 28 29 30 31 32 33 34 35 36 37 38 39 40 41 42 43 44 45 46 47 48 49 50
000
ASUS43 KDTX 271110
RWRMI
MICHIGAN HOURLY REGIONAL WEATHER ROUNDUP
NATIONAL WEATHER SERVICE DETROIT/PONTIAC MI
700 AM EDT WED JUL 27 2016

NOTE: "FAIR" INDICATES FEW OR NO CLOUDS BELOW 12,000 FEET WITH NO
SIGNIFICANT WEATHER AND/OR OBSTRUCTION TO VISIBILITY.

MIZ047>049-052>055-059>063-066>070-074>076-081>083-271200-
SOUTHEAST LOWER MICHIGAN

CITY           SKY/WX    TMP DP  RH WIND       PRES   REMARKS
ADRIAN         MOCLDY    63  62  97 NW3       30.05R
ALMA           MOCLDY    65  64  95 SW3       30.01F
ANN ARBOR      FOG       58  58 100 CALM      30.03R VSB<1/4
BAD AXE        CLEAR     63  60  91 SW3       29.99S
CARO           CLEAR     62  61  96 S3        30.00S
DETROIT CITY   CLEAR     70  63  78 W3        30.02R
DETROIT        PTCLDY    69  62  78 CALM      30.03R
FLINT          CLEAR     66  62  87 SW3       30.02R
GROSSE ILE     CLEAR     68  62  82 CALM      30.02R
HOWELL         CLEAR     64  63  95 CALM      30.03S

CITY           SKY/WX    TMP DP  RH WIND       PRES   REMARKS
JACKSON        CLEAR     63  62  97 CALM      30.05R FOG
LAMBERTVILLE   CLEAR     63  61  93 CALM      30.03R
LANSING        CLEAR     65  61  87 CALM      30.03R
LAPEER         FAIR      60  59  97 CALM      30.03R
MASON          CLEAR     61  60  96 CALM      30.04R
MONROE         CLEAR     63  62  97 CALM      30.02R
MT. CLEMENS    CLEAR     68  63  84 SW3       30.00R
PONTIAC        PTCLDY    67  63  87 CALM      30.02R
PORT HURON     CLEAR     59  59 100 CALM      30.02R FOG
TRI CITIES     CLEAR     66  62  87 SW7       30.00S
MIDLAND        FAIR      64  61  90 CALM      29.99S
TROY           CLEAR     70  63  78 CALM      30.04R
SAGINAW HB     CLEAR     64  61  88 S3        30.00R
$$
MIZ043>046-050>051-056>058-064>065-071>073-077>080-271200-
SOUTHWEST LOWER MICHIGAN

CITY           SKY/WX    TMP DP  RH WIND       PRES   REMARKS
BATTLE CREEK   CLEAR     63  63 100 S3        30.04S
BENTON HARBOR  CLEAR     63  60  90 CALM      30.02S FOG
BIG RAPIDS     CLEAR     64  64 100 CALM      29.99F
COLDWATER      CLEAR     62  62 100 CALM      30.05R
FREMONT        FAIR      63  63 100 CALM      30.00S FOG
HOLLAND        CLEAR     62  61  96 CALM      30.03R
GRAND RAPIDS   PTCLDY    63  60  90 S5        30.03R
IONIA          FAIR      64  60  87 CALM      30.02S
KALAMAZOO      CLEAR     62  59  90 CALM      30.04R
LUDINGTON      PTCLDY    72  68  88 SW3       29.99R
MARSHALL       CLEAR     63  63  99 CALM      30.04R
MOUNT PLEASANT CLEAR     69  61  76 SW5       29.99R
MUSKEGON       PTCLDY    68  65  90 S3        30.01R
SOUTH HAVEN    CLEAR     61  60  98 CALM      30.02S
$$
MIZ016>042-271200-
NORTHERN LOWER MICHIGAN

CITY           SKY/WX    TMP DP  RH WIND       PRES   REMARKS
ALPENA         MOCLDY    69  61  75 W5        29.94R
BEAVER ISLAND  PTCLDY    68  65  91 W3        29.96R
BELLAIRE       CLEAR     64  62  92 CALM      29.96R
CADILLAC       CLEAR     65  60  85 SW3       30.00R
CHARLEVOIX     CLEAR     70  67  89 CALM      29.98S
FRANKFORT      CLEAR     69  65  89 CALM      29.96S
GAYLORD        CLEAR     69  61  75 VRB3      29.99R
GRAYLING       CLEAR     66  59  79 W5        30.00R
HARBOR SPRINGS CLEAR     68  66  93 CALM      29.96R
HOUGHTON LAKE  PTCLDY    70  60  70 W9        30.00R
MANISTEE       CLEAR     66  64  93 CALM      29.98R
OSCODA         MOCLDY    68  60  75 CALM      29.95R
PELLSTON       CLEAR     67  64  90 CALM      29.96R
ROGERS CITY    PTCLDY    67  63  84 W6        29.95R
TRAVERSE CITY  PTCLDY    72  65  78 SW8       29.94S
$$
MIZ007>008-015-271200-
EASTERN UPPER MICHIGAN

CITY           SKY/WX    TMP DP  RH WIND       PRES   REMARKS
KINROSS        FOG       63  62  97 CALM      29.95R VSB<1/4
MACKINAC ISLAN CLEAR     65  65 100 NW5       29.94R
NEWBERRY       MOCLDY    64  63  94 W6        29.96R
S. S. MARIE    FOG       65  64  97 W5        29.93R VSB 3/4
$$
MIZ004>006-011>014-085-271200-
CENTRAL UPPER MICHIGAN

CITY           SKY/WX    TMP DP  RH WIND       PRES   REMARKS
MANISTIQUE     CLOUDY    65  64  97 N8        29.93F
ESCANABA       CLOUDY    66  64  94 CALM      29.94S
MENOMINEE      PTCLDY   N/A N/A N/A SW5       29.96S
SAWYER-GWINN   CLEAR     66  63  88 NE12      29.95F
$$
MIZ001>003-009>011-084-271200-
WESTERN UPPER MICHIGAN

CITY           SKY/WX    TMP DP  RH WIND       PRES   REMARKS
IRON MOUNTAIN  MOCLDY    65  60  84 CALM      29.97R
HOUGHTON       CLOUDY    63  56  78 NE8       29.97F
IRONWOOD       CLOUDY    66  66 100 CALM      29.97R
$$

ABBREVIATIONS USED IN REMARKS
   TC - TEMPERATURE IN CELSIUS
  WCI - WIND CHILL INDEX
   HX - HEAT INDEX
  VSB - VISIBILITY




USA.gov is the U.S. government's official web portal to all federal, state and local government web resources and services.